Weather History for Branson, MO

Change the Weather History Date:

Monday, January 20, 2014

  Actual Average (KHRO) Record (KHRO)
Temperature  
Mean Temperature 50 °F 36 °F  
Max Temperature 60 °F 47 °F 73 °F (1986)
Min Temperature 39 °F 26 °F -13 °F (1985)
Degree Days  
Heating Degree Days 14 29  
Month to date heating degree days 580  
Since 1 July heating degree days 2179  
Cooling Degree Days 0 0  
Month to date cooling degree days 0  
Year to date cooling degree days 0  
Moisture  
Dew Point 25 °F    
Average Humidity 34    
Maximum Humidity 43    
Minimum Humidity 27    
Precipitation  
Precipitation 0.00 in 0.08 in 1.12 in (1913)
Month to date precipitation 1.68  
Year to date precipitation 1.68  
Snow  
Snow 0.00 in 0.20 in 3.50 in (1930)
Month to date snowfall 2.2  
Since 1 July snowfall 4.0  
Snow Depth -    
Sea Level Pressure  
Sea Level Pressure 29.95 in    
Wind  
Wind Speed 8 mph (WNW)    
Max Wind Speed 21 mph    
Max Gust Speed 30 mph    
Visibility 10 miles    
Events      
T = Trace of Precipitation, MM = Missing Value Source: NWS Daily Summary

Daily Weather History Graph

Daily Weather History Graph

Search for Another Location

Airport:

Trip Planner

Search our weather history database for the weather conditions in past years. The results will help you decide how hot, cold, wet, or windy it might be!

Date:

Astronomy

Jan. 20, 2014 Rise Set
Actual Time 7:22 AM CST 5:26 PM CST
Civil Twilight 6:54 AM CST 5:53 PM CST
Nautical Twilight 6:22 AM CST 6:25 PM CST
Astronomical Twilight 5:51 AM CST 6:56 PM CST
Moon 9:52 PM CST (1/20) 9:30 AM CST (1/20)
Length of Visible Light 10h 59m
Length of Day
10h 04m
Waning Gibbous, 82% of the Moon is Illuminated
Jan 20
Waning Gibbous
Jan 23
Last Quarter
Jan 30
New
Feb 6
First Quarter
Feb 14
Full

Hourly Weather History & Observations

Time (CST) Temp. Windchill Dew Point Humidity Pressure Visibility Wind Dir Wind Speed Gust Speed Precip Events Conditions
12:15 AM 46.4 °F 42.4 °F - N/A% 29.92 in 10.0 mi WSW 8.1 mph - N/A   Clear
12:35 AM 48.2 °F - - N/A% 29.92 in 10.0 mi WSW 8.1 mph - N/A   Clear
12:55 AM 48.2 °F - - N/A% 29.91 in 10.0 mi WSW 8.1 mph - N/A   Clear
1:15 AM 46.4 °F 42.9 °F - N/A% 29.91 in 10.0 mi WSW 6.9 mph - N/A   Clear
1:35 AM 46.4 °F 43.5 °F - N/A% 29.91 in 10.0 mi WSW 5.8 mph - N/A   Clear
1:55 AM 46.4 °F 43.5 °F - N/A% 29.91 in 10.0 mi WSW 5.8 mph - N/A   Clear
2:15 AM 46.4 °F 42.9 °F - N/A% 29.91 in 10.0 mi WSW 6.9 mph - N/A   Clear
2:35 AM 46.4 °F 43.5 °F - N/A% 29.91 in 10.0 mi West 5.8 mph - N/A   Clear
2:55 AM 48.2 °F - - N/A% 29.90 in 10.0 mi West 8.1 mph - N/A   Clear
3:15 AM 48.2 °F - - N/A% 29.90 in 10.0 mi West 8.1 mph - N/A   Clear
3:35 AM 48.2 °F - - N/A% 29.90 in 10.0 mi West 6.9 mph - N/A   Clear
3:55 AM 48.2 °F - - N/A% 29.89 in 10.0 mi West 6.9 mph - N/A   Clear
4:15 AM 48.2 °F - - N/A% 29.89 in 10.0 mi West 5.8 mph - N/A   Clear
4:35 AM 46.4 °F 43.5 °F - N/A% 29.89 in 10.0 mi West 5.8 mph - N/A   Clear
4:55 AM 46.4 °F 44.3 °F - N/A% 29.90 in 10.0 mi WNW 4.6 mph - N/A   Clear
5:15 AM 46.4 °F 44.3 °F - N/A% 29.90 in 10.0 mi WNW 4.6 mph - N/A   Clear
5:35 AM 44.6 °F 42.2 °F - N/A% 29.90 in 10.0 mi WNW 4.6 mph - N/A   Clear
5:55 AM 46.4 °F 43.5 °F - N/A% 29.90 in 10.0 mi West 5.8 mph - N/A   Clear
6:15 AM 46.4 °F 42.4 °F - N/A% 29.90 in 10.0 mi West 8.1 mph - N/A   Clear
6:35 AM 48.2 °F - - N/A% 29.90 in 10.0 mi WSW 8.1 mph - N/A   Partly Cloudy
6:45 AM 48.2 °F - 23.0 °F 37% 29.90 in 10.0 mi WSW 8.1 mph - N/A   Partly Cloudy
7:45 AM 46.4 °F - 23.0 °F 40% 29.91 in 10.0 mi Calm Calm - N/A   Clear
8:45 AM 48.2 °F - 23.0 °F 37% 29.92 in 10.0 mi NNW 4.6 mph - N/A   Clear
9:45 AM 50.0 °F - 26.6 °F 40% 29.93 in 10.0 mi North 3.5 mph - N/A   Clear
10:52 AM 53.6 °F - 26.6 °F 35% 29.94 in 10.0 mi North 5.8 mph - N/A   Partly Cloudy
11:46 AM 55.4 °F - 24.8 °F 31% 29.92 in 10.0 mi WNW 5.8 mph - N/A   Partly Cloudy
12:50 PM 57.2 °F - 24.8 °F 29% 29.89 in 10.0 mi NNW 6.9 mph - N/A   Partly Cloudy
1:45 PM 59.0 °F - 26.6 °F 29% 29.87 in 10.0 mi NNW 6.9 mph - N/A   Partly Cloudy
2:46 PM 60.8 °F - 26.6 °F 27% 29.88 in 10.0 mi NNW 13.8 mph - N/A   Partly Cloudy
3:45 PM 59.0 °F - 24.8 °F 27% 29.90 in 10.0 mi North - - N/A   Partly Cloudy
4:45 PM 57.2 °F - 23.0 °F 27% 29.93 in 10.0 mi NNW 10.4 mph 19.6 mph N/A   Scattered Clouds
5:46 PM 53.6 °F - 23.0 °F 30% 29.97 in 10.0 mi NNW 13.8 mph - N/A   Mostly Cloudy
6:51 PM 50.0 °F - 24.8 °F 37% 30.03 in 10.0 mi NW 13.8 mph 19.6 mph N/A   Scattered Clouds
7:48 PM 48.2 °F - 26.6 °F 43% 30.06 in 10.0 mi NW 18.4 mph 27.6 mph N/A   Mostly Cloudy
8:46 PM 46.4 °F 38.7 °F 24.8 °F 43% 30.08 in 10.0 mi NW 20.7 mph 29.9 mph N/A   Partly Cloudy
9:15 PM 44.6 °F 37.8 °F - N/A% 30.08 in 10.0 mi NW 15.0 mph 21.9 mph N/A   Clear
9:35 PM 44.6 °F 38.4 °F - N/A% 30.08 in 10.0 mi WNW 12.7 mph 20.7 mph N/A   Clear
9:55 PM 42.8 °F 34.8 °F - N/A% 30.08 in 10.0 mi NW 17.3 mph 23.0 mph N/A   Clear
10:15 PM 42.8 °F 35.4 °F - N/A% 30.09 in 10.0 mi NW 15.0 mph 24.2 mph N/A   Clear
10:35 PM 41.0 °F 33.5 °F - N/A% 30.09 in 10.0 mi NW 13.8 mph 21.9 mph N/A   Clear
10:55 PM 41.0 °F 35.8 °F - N/A% 30.09 in 10.0 mi NW 8.1 mph - N/A   Clear
11:15 PM 41.0 °F 34.3 °F - N/A% 30.09 in 10.0 mi WNW 11.5 mph 17.3 mph N/A   Clear
11:35 PM 41.0 °F 34.3 °F - N/A% 30.09 in 10.0 mi NW 11.5 mph 25.3 mph N/A   Clear
11:55 PM 39.2 °F 30.5 °F - N/A% 30.09 in 10.0 mi WNW 16.1 mph 25.3 mph N/A   Clear